Regional Weather Roundup
Issued by NWS

Home | Current Version | Previous Version | Graphics & Text | Print | Product List | Glossary On
Versions: 1 2 3 4 5 6 7 8 9 10 11 12 13 14 15 16 17 18 19 20 21 22 23 24 25 26 27 28 29 30 31 32 33 34 35 36 37 38 39 40 41 42 43 44 45 46 47 48 49 50
095
ASUS45 KSLC 231510
RWRUT

UTAH REGIONAL WEATHER ROUNDUP
NATIONAL WEATHER SERVICE SALT LAKE CITY UT
900 AM MDT SAT JUL 23 2016

UTZ001>011-023>025-231600-

NORTHERN UTAH

CITY           SKY/WX    TMP DP  RH WIND       PRES   REMARKS
BRIGHAM CITY     N/A     68  35  29 N5        30.17R
HILL AFB       SUNNY     72  38  28 E7        30.18R
LOGAN          SUNNY     64  43  46 N3        30.19R
OGDEN          SUNNY     74  38  27 NE5       30.16R
PROVO AIRPORT  SUNNY     73  48  40 CALM      30.18R
SALT LAKE CITY MOSUNNY   78  32  18 VRB3      30.15R
VERNAL         SUNNY     72  49  44 S3        30.20R
WENDOVER       SUNNY     75  28  17 S3        30.19R
HEBER CITY     SUNNY     64  46  52 CALM      30.23S

$$

UTZ012>022-026-027-231600-

SOUTHERN/CENTRAL UTAH

CITY           SKY/WX    TMP DP  RH WIND       PRES   REMARKS
BLANDING       SUNNY     76  46  35 SE5       30.32R
BRYCE CANYON   SUNNY     69  47  45 CALM      30.38R
CEDAR CITY     SUNNY     75  44  33 N6        30.21R
DELTA          SUNNY     77  30  18 N3        30.18R
MILFORD        SUNNY     79  26  14 N15       30.18R
MOAB/CYNLANDS  SUNNY     81  51  35 E7        30.12S
PRICE          SUNNY     74  48  39 CALM      30.23R
ST GEORGE      SUNNY     88  46  23 SE6       30.02S

$$

REGIONAL REPORTS     COLORADO/ARIZONA

CITY           SKY/WX    TMP DP  RH WIND       PRES   REMARKS
CRAIG, CO      SUNNY     70  48  45 CALM      30.27F
GRAND JUNCTION SUNNY     74  54  49 SE17      30.18R
RIFLE          SUNNY     70  50  49 N5        30.25S
MONTROSE       SUNNY     70  50  49 CALM      30.28R
CORTEZ         SUNNY     72  50  45 SE3       30.26S
PAGE, AZ       SUNNY     83  48  29 CALM      30.12R
GRAND CANYON   SUNNY     77  49  37 VRB3      30.32R
KINGMAN        MOSUNNY   91  46  21 SE8       30.04R
FLAGSTAFF      MOSUNNY   74  47  38 CALM      30.34R

$$

REGIONAL REPORTS    NEVADA/IDAHO/WYOMING

CITY           SKY/WX    TMP DP  RH WIND       PRES   REMARKS
LAS VEGAS, NV  MOSUNNY   93  27   9 CALM      29.88R
ELY            SUNNY     62  22  21 S5        30.30R
ELKO           SUNNY     60  17  18 S3        30.25S
POCATELLO, ID  SUNNY     67  39  35 SW24G30   30.21R
BURLEY         SUNNY     64  44  48 W15G24    30.19R
EVANSTON, WY   SUNNY     67  34  29 CALM      30.34R
ROCK SPRINGS   SUNNY     69  34  27 W8        30.28S
KEMMERER         N/A     66  30  26 CALM      30.34R

$$




USA.gov is the U.S. government's official web portal to all federal, state and local government web resources and services.